Prescott, AZ

5:21 AM MST on February 23, 2017 (GMT -0700)
Love

Weather History for KPRC - December, 2012

Change the Weather History Date:

Wednesday, December 5, 2012

  Actual Average Record
Temperature  
Mean Temperature 52 °F 40 °F  
Max Temperature 69 °F 53 °F 71 °F (1989)
Min Temperature 36 °F 26 °F 11 °F (1948)
Degree Days  
Heating Degree Days 12    
Month to date heating degree days  
Since 1 July heating degree days  
Cooling Degree Days 0    
Month to date cooling degree days  
Year to date cooling degree days  
Growing Degree Days 2 (Base 50)    
Moisture  
Dew Point 24 °F    
Average Humidity 40    
Maximum Humidity 64    
Minimum Humidity 13    
Precipitation  
Precipitation 0.00 in 0.03 in 0.46 in (1994)
Month to date precipitation 0.15  
Year to date precipitation 13.16  
Sea Level Pressure  
Sea Level Pressure 30.07 in    
Wind  
Wind Speed 5 mph (SSW)    
Max Wind Speed 12 mph    
Max Gust Speed -    
Visibility 10 miles    
Events      
T = Trace of Precipitation, MM = Missing Value Source: NWS Daily Summary

Daily Weather History Graph

Daily Weather History Graph

Search for Another Location

Airport or City:

Trip Planner

Search our weather history database for the weather conditions in past years. The results will help you decide how hot, cold, wet, or windy it might be!

Date:

Astronomy

Dec. 05, 2012 Rise Set
Actual Time 7:22 AM MST 5:18 PM MST
Civil Twilight 6:54 AM MST 5:46 PM MST
Nautical Twilight 6:23 AM MST 6:17 PM MST
Astronomical Twilight 5:52 AM MST 6:48 PM MST
Moon 11:59 PM MST (12/5) 11:59 AM MST (12/5)
Length of Visible Light 10h 51m
Length of Day
9h 56m
Waning Gibbous, 59% of the Moon is Illuminated
Dec 5
Waning Gibbous
Dec 6
Last Quarter
Dec 13
New
Dec 19
First Quarter
Dec 28
Full

Hourly Weather History & Observations

Time (MST) Temp. Windchill Dew Point Humidity Pressure Visibility Wind Dir Wind Speed Gust Speed Precip Events Conditions
12:53 AM 41.0 °F 36.4 °F 27.0 °F 57% 30.17 in 10.0 mi SSW 6.9 mph - N/A   Clear
1:53 AM 41.0 °F 37.1 °F 26.1 °F 55% 30.16 in 10.0 mi SSW 5.8 mph - N/A   Clear
2:53 AM 42.1 °F 37.7 °F 26.1 °F 53% 30.15 in 10.0 mi SSW 6.9 mph - N/A   Clear
3:53 AM 39.9 °F 34.5 °F 25.0 °F 55% 30.15 in 10.0 mi South 8.1 mph - N/A   Clear
4:53 AM 37.9 °F 35.5 °F 25.0 °F 60% 30.14 in 10.0 mi SW 3.5 mph - N/A   Clear
5:53 AM 37.0 °F 34.5 °F 24.1 °F 59% 30.17 in 10.0 mi SSW 3.5 mph - N/A   Clear
7:53 AM 36.0 °F 33.3 °F 25.0 °F 64% 30.18 in 10.0 mi South 3.5 mph - N/A   Clear
8:53 AM 43.0 °F - 26.1 °F 51% 30.17 in 10.0 mi Calm Calm - N/A   Clear
9:53 AM 48.0 °F - 27.0 °F 44% 30.16 in 10.0 mi NNW 5.8 mph - N/A   Clear
10:53 AM 53.1 °F - 27.0 °F 37% 30.13 in 10.0 mi Calm Calm - N/A   Clear
11:53 AM 61.0 °F - 27.0 °F 27% 30.08 in 10.0 mi Calm Calm - N/A   Clear
12:53 PM 66.9 °F - 25.0 °F 21% 30.04 in 9.0 mi NNE 5.8 mph - N/A   Clear
1:53 PM 69.1 °F - 24.1 °F 18% 30.01 in 10.0 mi North 3.5 mph - N/A   Clear
2:53 PM 69.1 °F - 21.0 °F 16% 29.98 in 10.0 mi Calm Calm - N/A   Clear
3:53 PM 69.1 °F - 15.1 °F 13% 29.97 in 10.0 mi WSW 11.5 mph - N/A   Clear
5:53 PM 62.1 °F - 24.1 °F 23% 30.00 in 10.0 mi SSW 4.6 mph - N/A   Clear
6:53 PM 55.9 °F - 24.1 °F 29% 30.01 in 10.0 mi South 6.9 mph - N/A   Clear
7:53 PM 55.0 °F - 23.0 °F 29% 30.02 in 10.0 mi SSE 8.1 mph - N/A   Clear
8:53 PM 48.9 °F - 24.1 °F 38% 30.01 in 10.0 mi South 6.9 mph - N/A   Clear
9:53 PM 50.0 °F - 21.9 °F 33% 29.99 in 10.0 mi Calm Calm - N/A   Clear
10:53 PM 44.1 °F 42.5 °F 26.1 °F 49% 29.99 in 10.0 mi SSW 3.5 mph - N/A   Clear
11:53 PM 43.0 °F - 25.0 °F 49% 29.97 in 10.0 mi Calm Calm - N/A   Clear